Theta_e
325 325 325 332 334 327 325 326 323 324 327 324 322 322 328 338 324 317 347 360 335 334 350 349 356 367 370 370 359 349 349 349 349 349 350 351 351 349 349 349 350 353 354 356 358 356 354 356 357 358 358 357 356 356 356 356 356 356 355 354 352 350 348 347 346 344 343 342 340 340 339 337 338 338 338 339 339 339 340 340 339 338 337 336 334 333 334
324 323 323 327 328 326 326 326 327 326 326 324 323 324 331 334 327 326 346 354 343 338 343 345 347 349 352 355 350 345 346 350 351 352 351 351 350 349 348 348 349 350 352 353 355 356 354 354 356 357 357 357 356 355 356 355 355 356 355 353 352 350 349 347 346 345 344 341 339 339 338 337 337 338 338 339 339 339 340 340 339 338 338 337 335 334 335
320 322 324 325 323 324 322 321 327 327 324 325 322 323 331 331 329 333 340 344 344 340 345 351 346 342 343 348 349 347 347 349 350 351 351 351 349 349 348 347 348 349 350 351 354 356 353 351 354 356 356 356 356 355 355 355 355 355 354 354 352 350 349 348 347 346 343 339 338 338 338 338 337 337 337 338 339 339 339 340 339 339 339 338 336 335 336
318 321 323 323 321 323 318 317 324 324 321 325 323 325 336 333 329 335 336 332 336 341 347 349 346 345 347 347 349 347 344 347 350 350 351 350 350 351 350 349 349 349 350 352 354 354 350 349 352 354 354 356 355 355 355 354 355 355 353 353 351 350 349 348 347 344 340 337 336 337 337 335 334 334 335 337 338 339 339 339 339 338 340 339 334 332 336
318 321 321 321 320 318 315 317 320 321 324 327 324 330 345 342 333 334 331 327 337 350 350 346 347 350 349 346 345 344 342 345 348 349 350 349 350 352 351 350 350 349 349 349 350 348 346 347 350 351 353 355 354 354 355 354 354 353 353 353 351 348 346 346 345 342 339 337 336 335 334 331 331 333 334 333 334 336 338 339 338 338 340 339 333 331 337
315 321 324 322 317 314 319 328 331 327 324 323 325 335 348 348 345 345 340 340 352 358 352 349 349 348 349 347 342 342 345 344 343 346 349 349 350 351 351 352 350 349 349 346 343 343 343 345 347 349 352 353 353 354 353 353 353 353 353 352 349 346 344 343 342 341 338 337 336 335 334 332 331 331 330 329 329 332 336 338 338 338 339 339 338 337 339
320 326 324 318 316 322 335 347 347 336 325 327 339 348 349 347 350 356 356 355 358 356 353 353 350 346 350 354 349 349 352 350 347 348 348 350 353 352 352 354 352 351 353 348 341 342 344 345 346 349 351 352 353 352 352 352 352 352 352 351 348 344 342 341 341 340 339 338 337 337 334 330 328 326 325 326 328 330 333 334 335 334 335 336 338 338 338
326 323 318 317 325 337 344 345 345 341 335 337 342 341 341 344 345 350 359 359 352 350 351 353 352 350 352 355 350 347 348 350 352 354 352 352 355 354 353 355 354 352 351 348 344 344 345 345 346 348 349 350 351 351 351 351 351 351 351 349 345 343 341 340 340 340 338 336 335 333 329 325 324 322 321 322 323 325 328 329 329 329 331 334 335 336 337
332 326 320 323 329 332 336 339 343 343 339 340 343 339 338 341 341 344 354 354 347 346 349 347 347 350 353 356 349 342 341 343 347 352 350 347 351 354 350 348 349 347 344 344 346 346 346 346 346 346 348 349 350 350 350 350 350 350 349 346 344 342 341 340 339 338 335 332 330 329 327 325 324 323 323 322 321 322 324 323 324 326 330 333 334 335 336
340 336 328 327 326 327 339 347 342 339 336 337 345 347 340 339 342 343 346 348 347 347 344 340 344 349 353 355 347 340 340 340 341 344 345 344 347 348 341 339 340 340 342 345 346 348 349 347 346 346 347 347 349 350 349 350 349 347 345 343 342 341 340 339 337 335 332 330 328 327 327 327 326 325 324 322 320 320 320 321 325 328 331 333 333 334 335
339 335 331 333 331 332 346 350 338 335 336 336 339 341 336 338 346 344 343 348 352 351 344 340 342 345 347 348 345 342 342 341 342 347 349 349 349 344 338 337 338 339 343 346 347 350 350 348 348 348 347 347 348 348 348 348 348 345 343 342 340 339 338 337 335 333 330 327 327 326 326 325 323 323 324 324 324 325 325 326 329 331 333 333 334 334 334
341 340 338 338 337 338 342 341 335 333 335 334 331 330 333 341 345 341 341 347 350 350 346 343 344 345 345 346 344 342 342 341 342 348 353 354 356 351 343 342 340 341 345 346 348 350 351 350 349 349 348 347 347 347 346 345 346 344 341 340 339 338 337 335 332 330 328 327 327 326 326 325 323 324 327 328 328 329 330 331 332 333 333 333 334 334 333
342 345 341 336 338 342 339 334 333 333 334 332 327 328 336 344 343 338 338 340 341 343 343 343 345 345 342 340 340 341 344 344 343 344 344 345 348 349 347 347 344 344 346 346 348 350 351 352 351 348 348 347 345 346 345 344 344 342 340 338 338 337 337 334 331 329 327 327 328 328 329 328 328 328 329 330 330 331 332 332 332 331 332 333 334 333 333
338 342 343 336 335 339 334 330 333 337 338 337 333 334 338 341 339 337 337 338 339 340 341 342 344 341 339 340 341 342 344 346 346 344 345 346 349 348 346 347 347 347 347 346 347 349 350 352 351 348 347 347 345 344 343 342 342 341 339 338 337 336 336 334 331 329 327 328 329 330 331 331 330 330 330 331 331 331 331 330 329 329 330 332 332 333 333
341 344 346 338 335 336 332 334 344 348 344 341 339 336 335 336 335 334 334 336 337 338 339 341 343 343 345 346 347 346 346 346 345 344 345 350 352 349 346 346 347 347 347 345 345 348 350 351 349 348 347 345 344 343 341 340 340 340 339 338 336 336 335 334 333 331 330 329 331 332 332 331 329 329 330 331 331 330 329 327 327 329 330 330 331 331 331
343 344 343 338 337 336 333 336 345 344 339 338 339 337 334 333 334 333 333 334 335 336 339 341 342 345 349 350 351 351 349 348 347 347 348 349 349 345 341 343 345 345 343 342 343 347 350 349 347 346 346 344 342 341 341 340 340 339 339 337 335 335 334 334 334 333 332 332 333 332 331 329 327 328 329 330 330 329 327 327 328 329 330 330 331 331 330
339 339 339 338 338 336 332 333 336 336 335 336 336 337 338 337 336 335 334 335 335 335 337 339 341 343 346 349 351 353 354 354 352 350 349 348 346 343 339 341 344 345 344 344 344 345 345 346 345 344 344 344 341 340 341 341 339 339 338 336 336 335 334 334 334 334 334 333 331 330 329 328 327 327 327 328 328 327 327 326 327 329 330 330 330 330 330
341 339 339 339 337 334 331 331 331 333 335 335 333 335 338 338 336 334 334 335 335 334 335 337 339 340 342 346 348 350 356 360 358 355 356 350 341 338 339 341 343 345 346 344 344 343 342 342 342 343 344 344 342 341 341 340 339 339 337 336 336 334 334 334 333 333 333 331 329 329 328 327 328 328 328 328 328 328 327 326 326 328 329 329 329 329 329
345 345 342 339 337 334 331 330 330 331 331 332 332 334 336 336 335 334 334 334 333 333 334 336 337 337 339 345 348 346 350 356 356 358 366 360 343 336 339 341 342 343 344 343 341 341 340 340 342 343 343 344 343 341 339 339 338 337 336 335 334 333 333 333 331 331 330 329 330 330 327 324 325 327 328 328 328 328 328 327 327 328 329 329 328 328 328
343 343 341 336 334 334 332 330 330 331 330 330 332 333 333 332 330 329 329 330 330 331 332 335 337 337 337 343 347 345 345 347 348 350 355 352 343 338 339 341 341 341 342 340 339 340 339 340 342 343 343 343 342 340 338 337 336 335 334 333 332 331 331 331 330 330 330 329 330 329 325 322 322 324 326 326 326 326 326 326 328 329 329 328 328 328 327
340 338 337 335 335 336 334 331 331 331 330 331 331 330 329 328 327 326 326 325 325 327 330 332 336 338 337 339 343 343 342 343 346 348 346 340 336 336 337 339 341 341 340 339 339 339 339 340 341 342 342 342 340 339 337 336 335 333 332 331 331 330 330 330 330 329 328 327 327 325 322 321 323 324 324 324 325 325 325 324 326 328 327 327 327 326 326
338 337 337 336 336 337 336 333 332 330 328 328 328 327 326 326 326 326 325 323 323 324 326 329 332 333 334 336 338 340 342 343 345 345 340 334 333 336 337 338 340 340 339 339 338 337 338 340 342 342 342 341 340 338 336 334 333 332 331 330 329 329 329 329 329 327 325 325 325 323 322 322 323 322 321 321 323 325 325 324 325 325 325 325 324 324 325
340 340 338 334 333 334 332 330 330 328 326 326 326 327 326 325 325 325 324 325 325 323 323 325 326 327 328 330 333 336 337 338 338 338 336 333 334 336 337 338 339 338 337 337 336 336 337 339 340 341 341 340 339 338 335 334 333 331 330 329 328 327 328 327 326 324 323 324 324 323 323 323 323 322 321 321 322 323 323 324 324 324 323 324 324 324 326
337 337 336 331 328 329 329 329 330 329 327 326 327 328 327 325 325 324 324 325 325 325 323 322 322 323 324 324 327 331 333 332 334 335 335 335 335 335 336 335 335 334 334 335 335 334 333 334 336 337 337 338 338 337 335 333 332 330 328 326 326 326 326 324 322 321 321 322 323 323 323 322 322 322 322 321 320 320 321 322 323 324 324 325 325 326 325
331 330 329 327 328 328 328 328 329 330 331 331 331 332 331 327 325 324 324 324 324 324 324 323 320 320 321 322 323 325 327 326 328 331 333 334 335 335 334 333 333 333 333 333 333 332 331 331 332 332 332 332 333 332 331 330 329 327 324 323 324 325 324 323 323 322 322 323 324 324 323 321 321 320 321 320 319 318 319 321 323 324 325 324 324 324 323
329 325 323 322 323 324 325 325 325 326 328 330 332 334 332 329 325 323 322 322 321 321 323 324 321 318 318 320 321 322 323 323 323 323 324 328 331 333 334 334 334 334 333 332 331 331 331 331 332 331 329 327 326 326 326 326 325 325 323 322 323 323 322 324 324 324 325 326 325 323 322 321 321 321 321 320 319 319 320 323 324 324 324 323 322 322 321
328 327 327 325 324 323 324 325 325 324 323 324 326 326 323 321 321 320 319 318 318 318 318 319 319 318 318 318 319 322 323 323 322 322 321 322 326 330 333 335 334 333 332 331 330 331 332 333 332 332 330 327 326 326 326 326 327 327 326 326 326 324 323 323 323 323 326 327 325 323 322 322 322 321 320 320 320 322 323 324 323 322 321 321 320 320 320
325 326 328 329 328 326 324 324 323 323 321 321 320 319 317 318 319 321 322 322 320 319 318 316 316 319 320 319 319 324 326 324 324 323 321 319 321 326 331 334 333 332 332 331 330 331 333 333 332 333 331 330 330 330 330 331 330 330 330 330 327 324 322 321 321 322 324 326 326 325 325 324 322 320 320 321 322 323 324 323 321 320 319 319 319 319 318
322 323 325 327 325 323 321 320 319 319 319 319 317 317 318 321 322 323 324 323 322 322 321 317 315 317 319 317 318 324 328 328 327 323 320 319 320 323 330 333 331 331 332 330 329 332 333 332 333 333 333 333 334 333 332 332 331 331 331 329 325 322 322 322 323 324 325 326 327 327 327 324 322 321 322 322 323 323 322 320 318 318 318 318 318 317 316
320 320 321 321 319 317 318 319 318 318 318 318 317 317 318 320 322 323 322 321 322 322 320 318 317 318 317 315 316 319 321 323 322 321 320 320 319 321 328 333 331 329 330 330 329 331 332 332 333 334 334 335 334 331 330 330 329 330 329 326 322 323 325 325 327 328 328 328 328 328 327 325 323 322 322 323 322 320 319 318 317 318 318 318 318 316 315
317 317 316 316 316 316 318 319 318 318 317 316 318 319 320 320 322 323 321 321 322 322 320 319 320 319 317 315 315 316 316 318 319 319 320 321 320 320 325 331 332 331 330 329 330 332 332 332 333 334 334 334 331 328 327 325 325 326 325 322 322 325 327 327 328 328 328 329 329 328 326 324 322 321 321 321 320 318 317 317 317 317 317 318 317 316 315
317 316 317 317 318 318 319 320 320 320 319 319 320 321 321 321 321 322 322 322 321 320 319 319 319 318 316 315 315 315 315 317 318 319 320 321 322 322 323 326 331 333 331 330 330 331 331 331 332 332 333 332 330 327 325 324 325 325 323 322 324 327 328 327 328 327 326 327 327 326 325 323 321 321 320 320 319 317 317 318 317 316 317 318 318 317 316
319 320 320 320 320 321 321 321 321 322 321 320 320 320 321 322 321 322 323 322 319 317 318 318 316 316 316 316 315 314 314 317 320 321 321 322 324 326 327 327 328 331 332 332 331 331 331 332 331 331 332 331 329 327 325 326 326 325 323 324 327 329 328 327 327 326 326 326 326 325 325 324 323 322 321 320 319 319 319 318 318 317 317 318 319 318 317
319 320 319 317 319 320 320 320 321 322 322 320 320 321 322 321 320 321 323 321 318 317 318 316 315 316 316 316 315 314 315 320 325 326 324 324 325 328 329 328 328 330 332 332 332 331 331 331 330 330 330 330 329 328 328 327 327 327 327 328 328 327 327 327 326 326 327 326 326 325 325 324 323 323 322 322 321 321 319 318 318 317 318 319 319 318 317
317 317 317 316 317 318 318 318 320 321 322 321 321 321 320 317 316 319 321 320 318 317 317 316 316 317 317 317 316 315 316 320 324 325 324 325 326 328 328 328 328 328 328 328 329 329 329 329 328 328 328 327 327 327 326 326 327 327 327 327 327 326 326 326 326 326 326 325 325 324 324 323 324 323 323 324 323 322 320 319 319 319 319 318 317 317 315
316 318 319 319 317 317 318 318 318 319 321 321 320 320 320 317 315 317 318 317 316 317 317 317 317 318 318 318 318 317 317 319 321 322 324 324 325 326 326 326 327 327 327 327 327 327 327 327 327 327 326 326 325 324 323 323 326 325 325 325 326 326 326 326 325 325 325 325 325 324 324 323 323 323 322 322 321 320 320 320 320 320 319 318 317 316 315
316 318 320 320 317 316 317 316 315 316 318 319 318 318 319 318 316 316 316 316 316 317 317 317 317 318 318 318 318 319 319 320 322 322 323 324 325 326 326 326 327 327 327 328 329 328 328 328 327 326 326 325 323 323 324 325 326 325 325 325 325 325 325 326 325 325 325 325 325 324 323 323 322 321 319 318 318 318 318 318 319 319 319 318 317 316 316
316 316 317 317 315 314 315 315 314 315 316 318 318 317 318 317 316 315 315 316 317 318 318 317 317 317 318 318 319 320 321 321 321 322 322 323 325 325 325 325 326 325 326 327 328 329 329 327 325 324 324 323 323 324 325 325 325 325 325 325 324 324 324 324 323 323 323 323 323 323 323 321 320 320 319 318 318 318 317 317 318 318 318 317 317 316 316
319 317 315 315 314 314 314 315 315 315 316 318 318 317 317 318 317 315 315 316 317 318 318 317 317 318 318 318 318 319 320 321 321 321 322 323 324 324 323 324 324 325 325 325 326 327 326 325 323 322 322 323 324 325 325 324 324 324 324 323 322 321 320 320 320 320 321 322 322 322 321 320 319 319 319 318 318 318 318 317 317 317 317 317 316 315 315
323 320 316 316 316 315 313 314 316 315 316 317 317 317 318 319 318 317 316 316 317 319 319 317 317 319 319 318 318 319 320 320 321 321 321 322 323 323 323 323 324 325 326 325 325 324 323 321 321 322 323 323 325 324 324 323 323 322 321 320 319 318 317 317 318 319 320 321 321 321 320 320 320 319 319 318 318 318 318 317 317 317 317 316 315 314 314
321 318 315 315 316 315 314 314 316 316 316 317 317 317 318 319 318 318 318 318 319 320 320 319 320 321 319 318 319 320 320 321 322 322 322 322 321 322 323 323 322 323 324 324 323 322 321 320 322 324 324 324 324 323 322 321 320 319 318 317 317 317 317 317 317 318 319 320 320 320 320 319 319 318 318 318 318 318 317 317 317 317 317 316 315 314 314
320 317 317 317 316 315 315 315 316 316 317 317 317 318 318 319 319 319 319 319 320 320 320 321 321 322 321 320 321 321 321 321 321 321 322 321 320 321 324 323 321 321 322 322 321 320 321 321 323 324 322 321 321 320 318 318 317 316 316 315 314 314 315 315 316 316 317 318 319 319 319 319 319 319 319 318 318 318 317 317 316 316 316 316 316 315 314
319 318 320 319 317 316 317 316 316 316 317 317 318 318 318 319 319 319 319 319 320 321 321 321 320 320 320 320 321 320 321 321 321 321 321 321 320 321 323 323 322 321 320 320 320 321 322 323 323 322 320 318 317 316 316 316 315 314 313 313 312 312 312 311 311 312 312 312 314 315 315 315 315 315 315 316 316 316 317 317 316 316 316 316 315 315 314
317 317 318 317 317 318 318 316 316 317 318 318 318 318 318 319 319 319 319 320 320 321 322 321 320 319 321 322 321 320 320 321 322 321 320 321 321 322 322 322 322 322 322 321 321 321 322 323 322 319 317 316 316 315 315 314 312 310 310 309 310 310 310 309 309 309 309 309 309 309 309 308 308 307 307 308 308 309 311 313 314 315 316 316 315 315 314
316 317 318 318 318 318 317 316 317 318 318 317 317 317 318 319 319 319 319 320 321 321 322 321 320 319 321 323 323 322 321 322 323 322 322 323 323 322 322 322 322 322 323 323 321 321 321 321 319 317 316 316 315 314 313 311 309 308 307 306 307 307 308 308 308 307 307 307 307 307 306 305 305 304 304 304 304 305 305 306 308 310 313 314 315 315 314
316 317 317 317 318 317 317 317 317 317 315 315 317 317 317 317 318 318 319 320 320 321 321 320 319 319 321 322 322 322 322 322 322 322 322 323 322 322 322 323 322 322 322 322 321 320 320 319 317 317 317 316 314 312 311 311 309 308 307 307 306 306 307 307 307 306 306 306 306 305 305 305 304 304 304 303 303 304 304 304 304 306 308 311 313 314 314
316 316 317 317 318 318 317 317 316 315 316 319 321 319 316 316 317 318 317 318 319 320 320 319 319 318 319 320 321 321 321 322 321 321 321 321 321 321 322 323 323 323 323 322 321 319 318 317 317 317 318 316 313 311 311 311 310 309 308 307 307 307 307 307 307 306 306 306 306 306 305 305 304 304 304 303 303 303 303 303 303 304 305 308 310 312 313
315 316 317 318 318 318 317 316 316 316 317 318 318 317 316 316 317 317 316 317 318 318 318 318 318 318 318 318 319 320 321 321 321 320 320 320 320 320 321 321 322 322 322 321 320 318 318 317 317 318 318 316 313 311 311 310 310 309 308 308 307 307 307 307 307 307 307 307 306 306 306 305 304 304 304 304 303 303 302 302 302 303 304 305 308 310 312
315 315 316 317 318 318 317 317 317 317 317 316 315 316 317 317 316 315 315 316 317 317 317 317 317 317 317 317 317 318 318 319 320 319 319 319 319 319 319 320 321 321 320 319 319 318 317 316 317 317 316 315 313 312 311 310 310 309 309 308 308 307 307 307 307 307 307 307 306 306 306 305 305 305 304 304 303 303 303 303 303 303 303 304 304 306 308
315 315 316 317 317 318 317 317 316 317 318 317 317 317 318 317 316 315 314 314 316 316 316 316 315 316 316 316 316 316 317 318 318 318 318 318 319 319 319 319 319 320 320 320 319 318 317 316 316 316 315 314 313 312 311 311 310 310 310 309 309 308 308 307 307 306 307 307 307 306 306 306 305 305 304 304 303 303 303 303 303 303 303 304 304 304 305
314 314 315 316 317 318 318 318 318 317 317 317 317 317 317 316 316 315 313 314 316 317 316 315 314 314 314 314 315 315 315 316 317 318 318 318 318 318 318 318 318 319 319 319 319 319 318 317 317 316 315 314 313 313 312 312 311 311 310 310 309 309 308 308 308 307 307 307 307 307 306 306 305 304 304 304 303 303 303 302 303 303 303 304 304 304 305
313 313 313 315 316 316 315 314 314 315 314 314 315 315 315 316 316 315 314 314 315 316 316 316 316 314 313 314 314 314 314 315 316 316 317 317 317 317 317 317 317 318 318 318 318 318 318 318 318 317 316 315 314 314 313 313 312 311 311 310 310 310 309 309 309 309 308 308 307 307 306 306 306 305 305 304 304 303 303 303 302 302 303 303 303 303 304
Wind_Speed
15 15 14 10 7 6 6 8 10 10 11 12 13 12 10 9 8 9 8 8 11 10 10 12 12 11 11 12 12 10 8 7 7 7 8 9 10 11 11 11 11 11 12 13 12 13 17 20 23 24 25 27 29 31 33 35 37 39 39 38 39 39 37 36 36 38 39 35 29 24 19 18 18 17 18 21 21 22 25 28 26 24 22 20 18 17 17
15 16 16 12 11 9 8 7 8 9 10 13 14 14 12 12 12 12 9 12 14 11 11 13 11 10 9 6 4 5 7 8 9 9 10 11 13 14 13 11 11 12 12 12 11 11 13 18 22 23 25 28 30 32 35 35 37 39 39 37 36 32 30 29 29 29 26 21 17 16 17 15 11 7 9 14 18 21 24 27 26 22 21 19 17 16 17
12 14 15 14 13 13 14 14 11 8 7 8 10 10 8 9 11 9 6 9 11 10 8 8 5 3 4 3 5 8 9 9 10 11 12 14 15 13 11 10 10 11 10 9 9 9 12 17 21 23 26 28 29 31 32 34 37 39 37 33 30 28 28 27 26 23 17 14 13 15 19 21 19 15 14 17 17 16 18 22 22 20 20 18 16 17 19
7 9 13 16 15 13 14 17 16 12 8 6 6 6 6 7 8 5 5 6 10 9 6 4 1 4 7 8 9 9 8 9 11 13 15 15 14 11 10 11 11 11 10 10 10 11 13 18 21 23 25 25 26 30 32 34 37 34 30 29 28 29 29 26 24 21 17 16 14 13 17 24 27 26 25 22 18 16 16 17 16 17 18 18 17 20 22
7 8 10 12 10 9 10 12 15 14 11 8 5 4 6 7 6 6 6 8 9 6 5 5 5 6 9 11 10 8 8 10 12 14 15 13 12 12 12 12 11 11 11 10 11 13 15 18 20 21 22 23 26 29 29 29 27 24 26 29 27 24 23 23 24 24 22 20 19 16 17 24 28 28 26 20 17 19 19 16 16 18 19 19 21 25 25
8 9 5 3 4 7 8 8 9 13 13 13 9 4 4 4 3 3 6 7 6 3 6 9 10 8 6 6 5 4 5 7 9 10 10 9 9 9 9 10 10 10 8 6 7 10 11 13 13 14 18 22 24 23 22 21 20 22 26 27 23 20 22 24 26 26 24 23 21 18 22 28 28 24 20 16 16 18 19 17 16 19 22 22 25 27 27
4 1 4 3 6 9 7 3 2 7 10 11 9 5 2 1 2 4 6 7 8 6 5 6 6 5 1 3 3 2 2 7 7 6 6 7 8 8 8 8 7 6 5 4 4 8 11 12 13 16 21 24 23 20 20 21 22 24 26 24 21 22 25 26 27 27 26 25 24 24 26 27 23 19 16 15 16 17 18 18 16 19 23 25 25 26 27
1 2 4 6 8 6 1 3 4 3 4 9 10 6 1 2 2 4 7 7 6 5 6 5 3 5 3 5 6 6 4 3 7 8 8 8 8 8 8 8 8 8 10 11 12 13 14 16 19 21 22 22 21 20 21 22 23 24 24 22 21 23 27 29 31 31 30 29 28 26 21 16 14 15 14 15 18 19 19 19 19 22 25 25 24 25 26
2 3 3 3 3 1 0 2 3 4 5 6 7 4 2 4 3 5 5 2 5 4 3 3 5 7 5 6 7 9 8 4 3 6 8 8 7 7 7 7 9 12 14 15 14 13 13 15 19 19 18 18 19 19 20 22 23 23 22 21 22 25 29 32 32 30 29 27 24 18 10 7 9 12 15 18 20 22 21 22 23 23 21 20 21 22 23
2 4 2 0 2 4 4 3 1 3 4 4 5 5 1 3 4 4 3 4 5 5 4 3 5 6 8 7 6 8 8 6 4 2 3 4 5 5 5 6 9 10 11 11 10 10 11 13 15 14 13 16 18 19 21 22 23 22 22 23 25 27 28 29 29 28 28 26 21 13 11 14 16 19 25 26 23 22 24 25 23 17 14 15 17 18 20
2 5 4 3 4 5 5 5 4 2 3 4 5 6 2 5 7 6 1 7 8 6 3 3 1 7 8 4 4 7 7 6 4 5 5 6 7 7 7 9 13 14 12 11 10 8 8 9 9 9 11 15 18 19 21 22 23 23 23 24 27 28 29 31 33 31 30 27 21 16 15 15 16 21 24 22 17 16 18 18 14 11 11 12 13 15 16
1 3 3 2 3 2 2 4 5 4 2 2 5 5 2 4 8 8 2 7 8 8 7 4 6 7 6 5 1 4 3 3 4 5 6 6 6 7 10 14 19 19 14 12 12 9 6 6 7 9 13 17 18 18 19 21 22 21 22 25 27 31 33 35 34 31 30 28 24 20 16 11 13 17 16 11 6 5 6 7 7 8 8 7 9 9 8
3 1 3 1 3 2 3 6 7 6 4 1 6 6 3 4 7 7 4 7 7 9 11 9 6 4 2 3 2 1 4 6 6 6 7 10 12 13 13 16 19 19 14 12 12 9 4 5 8 11 14 17 17 18 19 20 19 17 20 24 27 30 33 35 33 31 31 29 25 22 13 3 3 8 9 8 5 5 4 3 5 7 6 5 2 4 7
3 1 2 1 2 2 5 10 8 4 3 3 4 3 1 2 3 3 6 10 9 10 12 10 6 4 2 1 3 7 11 9 9 10 12 14 16 16 17 18 16 16 16 13 11 9 4 6 9 11 14 16 17 17 18 16 14 17 22 26 29 32 33 34 34 33 31 26 21 18 10 2 4 2 6 7 5 4 2 4 6 5 2 1 2 7 9
2 2 3 2 2 3 11 13 7 3 4 5 6 3 1 1 3 4 7 10 10 10 10 8 6 7 7 7 8 10 11 9 9 10 11 12 11 12 14 16 13 12 13 11 11 10 6 6 9 12 15 15 14 14 13 13 15 21 26 29 32 34 35 36 35 34 29 23 18 16 11 5 1 3 4 7 6 4 3 4 9 8 5 5 8 13 16
2 3 2 2 3 8 12 6 2 4 4 6 8 6 3 2 2 4 5 7 7 8 9 8 8 10 10 9 9 10 10 10 9 9 9 10 10 10 12 12 11 11 11 12 13 12 7 8 11 15 17 16 15 15 15 16 20 25 28 32 34 34 35 35 34 31 28 23 20 17 13 9 4 3 5 6 7 6 8 12 11 8 7 10 16 20 21
1 3 2 2 4 7 8 4 6 6 6 5 5 6 5 2 2 2 4 6 5 6 8 8 8 8 7 7 8 8 8 8 8 8 8 8 9 12 13 14 16 15 13 13 13 10 8 10 14 17 18 19 19 19 19 21 24 27 30 33 33 32 32 31 30 29 28 25 20 17 14 12 11 10 10 10 13 14 15 15 13 11 12 16 20 21 22
2 2 3 3 4 5 7 6 5 5 5 3 3 6 6 4 2 4 6 7 6 7 9 9 8 7 6 6 7 6 6 7 6 6 7 6 8 11 12 14 16 16 14 12 11 11 11 12 14 17 18 20 21 22 23 23 25 27 30 32 30 29 30 29 26 26 26 24 18 13 11 11 12 12 14 17 20 21 19 17 16 18 19 19 19 21 21
4 1 2 3 3 4 5 5 5 5 5 4 4 6 6 3 3 4 6 8 8 8 9 9 8 6 6 7 7 7 6 7 7 6 6 5 5 7 9 11 14 14 13 11 10 10 11 12 15 17 18 20 21 22 24 24 25 27 29 30 28 27 28 26 23 22 23 22 17 13 13 14 14 12 11 14 18 21 20 20 21 22 21 20 19 19 20
5 4 6 4 3 3 5 3 3 4 5 6 6 6 5 4 5 6 6 7 9 9 9 8 9 8 8 7 6 7 6 6 6 6 6 6 6 5 6 8 10 10 10 9 10 11 13 14 16 17 18 19 20 21 22 24 26 27 27 27 27 27 27 26 24 23 23 22 20 18 18 17 15 12 11 13 16 18 18 20 23 24 23 21 19 19 20
6 7 8 8 8 6 5 4 3 4 5 7 7 7 6 6 8 10 10 10 10 10 9 8 10 11 9 8 7 7 6 6 7 7 6 8 9 8 5 5 5 6 8 10 12 14 16 17 18 18 19 20 20 21 22 25 27 27 26 27 28 28 29 28 27 26 26 25 24 23 22 19 18 16 15 16 19 19 18 20 23 23 20 19 19 19 20
6 6 8 8 8 7 1 0 5 5 4 8 10 9 9 9 8 9 11 10 11 11 9 8 10 11 8 7 8 7 6 7 8 9 7 7 7 6 4 3 2 1 4 9 13 16 17 19 19 19 19 20 21 23 24 26 28 28 28 28 27 28 28 28 28 29 29 26 24 24 22 21 21 18 13 13 17 19 17 19 20 18 16 17 19 19 20
4 4 4 3 5 7 4 3 6 5 6 11 13 10 9 9 7 9 10 10 10 10 8 8 10 10 8 7 9 9 8 8 9 10 9 7 6 5 3 1 2 3 6 10 14 16 18 20 20 20 20 21 22 24 26 28 28 28 30 29 26 24 24 25 26 28 27 23 20 18 17 17 18 16 12 10 12 14 15 16 18 18 19 20 20 19 19
0 3 0 1 6 8 4 4 6 5 6 11 11 8 7 7 7 8 10 10 9 9 8 8 9 9 8 8 9 10 8 8 10 10 7 6 5 4 3 4 5 7 10 13 15 17 19 21 21 21 21 22 24 26 28 29 29 29 30 30 27 23 22 23 24 24 23 20 16 13 15 16 16 16 14 12 8 7 9 11 13 14 15 16 16 16 17
4 5 3 4 9 8 4 5 7 6 5 8 8 6 6 7 7 8 9 8 8 9 9 8 8 10 10 8 8 9 7 7 10 10 8 6 4 1 2 3 5 8 11 14 17 20 22 23 24 24 24 25 27 29 29 29 29 29 28 29 27 24 24 24 23 20 17 15 14 15 16 17 15 14 14 14 11 8 7 7 8 9 11 12 14 15 16
7 5 4 9 11 7 4 6 8 9 8 7 7 6 6 9 10 10 9 8 8 8 8 6 6 9 11 9 7 7 7 6 9 12 12 11 9 5 1 2 5 9 12 15 19 23 24 25 26 26 26 28 29 29 28 26 25 24 23 22 22 22 22 22 20 17 15 14 14 15 14 14 14 15 16 16 16 15 14 12 11 11 12 13 14 15 15
7 6 5 10 12 9 7 8 7 6 6 7 7 6 6 9 11 10 10 10 9 9 9 8 6 7 10 10 9 9 10 10 11 12 13 12 13 12 7 5 7 11 15 18 20 23 25 25 25 26 27 29 29 26 22 18 15 13 13 12 12 13 14 14 14 14 13 13 13 13 13 12 14 16 17 18 18 18 15 14 15 15 14 14 14 14 12
8 8 7 7 8 7 7 6 5 6 7 7 6 5 5 8 11 11 10 9 8 7 8 11 10 8 8 9 10 9 9 10 9 10 11 12 16 16 9 6 8 12 17 20 21 23 24 24 24 25 26 26 24 20 16 13 11 11 11 10 7 7 7 7 7 8 9 9 9 9 9 11 13 16 17 18 18 16 14 13 15 16 15 15 13 12 10
8 8 7 6 5 5 5 5 6 8 8 6 5 6 8 10 11 9 8 6 6 6 7 10 11 10 9 10 9 7 6 6 7 9 12 14 16 17 11 5 10 13 18 21 21 22 23 23 23 24 25 24 22 18 16 16 15 15 14 11 7 5 4 4 4 5 6 6 6 7 8 11 14 16 16 15 14 14 14 13 13 15 16 15 14 13 12
4 3 4 4 2 2 4 5 6 7 6 5 6 8 8 9 8 6 5 5 6 6 6 6 8 9 10 10 9 7 6 7 8 11 14 16 16 15 10 3 8 10 13 18 21 22 24 24 24 25 26 25 21 17 16 16 14 13 13 11 8 5 4 4 3 3 4 5 7 8 9 11 14 16 15 13 12 14 15 14 14 16 18 17 17 17 16
3 1 3 3 1 3 6 6 5 4 4 5 7 8 8 7 7 5 5 5 4 4 4 4 5 7 8 9 10 10 9 9 10 12 15 17 16 14 9 3 9 10 13 20 24 25 24 23 23 25 24 21 18 17 15 15 14 12 11 11 8 6 4 3 1 1 3 5 8 10 11 13 15 15 13 10 9 9 9 8 9 13 17 18 19 18 16
4 1 5 5 5 7 8 6 5 6 7 7 8 8 6 5 5 4 3 3 2 3 4 4 5 7 9 11 12 12 10 10 12 13 14 16 17 17 13 7 11 16 19 21 24 24 22 21 21 22 18 15 16 16 13 13 15 14 11 9 9 7 5 3 3 2 3 5 8 10 12 13 13 12 11 9 8 8 7 8 10 14 17 19 18 17 16
3 3 6 6 5 7 7 6 6 7 6 5 5 5 4 3 4 3 3 3 4 4 5 5 7 9 11 13 13 12 11 12 12 11 12 15 18 20 18 13 12 17 19 19 19 22 23 23 22 18 13 11 13 13 11 11 12 13 11 11 10 8 6 5 5 5 4 5 7 9 10 11 10 10 9 9 8 9 11 13 15 16 17 18 18 16 16
6 5 3 2 2 4 4 3 3 3 3 3 3 3 3 3 3 4 5 5 5 5 6 8 10 11 12 12 11 11 10 8 6 8 12 15 17 20 20 15 10 12 15 15 16 18 21 21 19 13 8 7 7 5 4 6 7 8 10 10 9 7 5 5 4 3 3 4 5 6 7 8 8 9 9 8 8 10 12 14 15 14 14 16 17 16 16
5 5 4 3 3 3 4 3 3 2 3 3 3 3 4 4 4 5 6 6 5 7 9 11 12 12 11 10 9 8 7 6 6 9 13 16 18 18 14 7 4 7 7 7 9 10 11 11 10 10 11 12 10 8 7 5 3 2 4 5 6 5 4 4 3 2 2 3 4 5 6 6 7 8 9 9 9 10 11 12 13 12 11 13 14 14 15
4 4 4 3 3 3 3 3 2 1 2 3 3 3 4 5 5 6 6 7 8 10 11 11 11 11 9 8 8 8 9 10 10 12 13 15 15 10 3 4 8 11 12 11 10 11 13 15 16 17 17 16 13 10 10 10 7 5 7 9 8 6 5 3 2 1 1 2 3 5 6 7 8 9 9 8 8 8 9 9 9 7 7 9 11 11 12
6 6 4 3 3 4 4 4 4 4 4 4 4 5 5 6 7 8 8 9 11 12 11 11 10 9 9 9 10 9 9 10 10 11 11 9 5 3 7 10 10 9 8 9 13 17 19 18 15 14 13 11 10 8 6 5 4 2 8 10 8 5 3 3 2 2 2 3 5 6 8 9 9 9 7 6 6 7 8 8 7 6 6 8 9 9 11
7 8 7 6 6 6 7 8 9 9 7 6 6 7 7 8 9 10 11 12 13 13 13 12 11 9 9 10 10 9 11 11 11 10 8 5 5 7 9 10 9 6 5 8 13 16 15 12 11 12 12 11 9 8 7 6 4 4 8 8 5 3 3 3 3 3 3 5 6 8 9 9 7 6 5 4 5 6 6 6 6 6 7 7 7 8 10
7 8 8 8 8 8 8 9 11 11 8 5 5 6 8 9 11 11 12 14 15 15 15 15 14 11 10 9 9 9 11 13 12 11 9 9 12 12 12 13 14 12 9 9 11 12 12 11 9 9 9 10 10 10 10 8 7 9 8 6 4 4 3 3 3 3 4 6 7 8 8 7 4 3 2 2 3 3 4 4 5 5 6 7 8 9 11
5 5 6 6 6 6 6 6 8 9 9 7 6 7 8 10 11 11 12 14 15 16 16 15 13 10 9 8 8 8 10 13 13 12 10 11 14 14 13 14 16 14 10 8 12 15 16 14 10 8 10 13 14 14 14 14 13 10 8 5 4 4 4 4 4 4 5 5 7 7 7 5 4 3 3 3 3 3 4 5 6 7 8 8 9 10 11
4 4 4 5 5 5 5 5 6 9 10 9 9 9 9 9 9 10 11 13 15 15 15 14 12 9 8 8 7 8 9 13 14 12 9 8 9 8 6 7 11 12 11 12 15 15 12 11 13 15 17 17 17 16 16 14 11 9 7 6 5 5 5 5 4 4 3 5 6 6 5 5 5 4 4 4 5 5 6 7 8 9 10 10 10 11 12
4 4 4 4 4 5 6 7 7 8 9 10 11 11 10 9 8 9 10 11 12 13 13 13 11 9 8 7 6 8 10 13 13 12 9 7 5 4 4 6 10 12 12 12 12 10 8 11 16 19 19 17 16 15 13 11 9 8 7 6 4 4 4 4 4 4 4 5 5 6 6 6 6 6 7 7 8 9 10 10 11 12 12 12 12 12 13
4 4 4 4 5 6 7 8 7 6 7 10 12 11 9 8 8 8 9 10 10 10 11 12 13 12 10 7 6 7 10 12 12 11 11 9 7 5 6 9 10 9 6 6 6 8 11 15 17 18 17 16 15 13 11 10 9 7 6 5 5 5 5 5 5 5 5 5 5 5 4 4 4 5 7 9 11 12 13 14 15 16 16 16 15 15 15
5 5 4 4 5 6 7 8 8 6 7 9 9 8 7 8 8 8 9 10 10 10 12 13 14 15 14 11 8 7 8 9 10 11 10 10 8 6 7 8 7 4 2 2 4 8 13 16 17 16 15 14 13 12 10 9 7 5 4 4 4 4 5 6 6 5 5 5 5 4 3 1 0 2 4 7 9 12 14 16 17 19 19 19 19 18 18
6 5 4 4 5 6 6 7 6 5 5 7 7 6 7 8 8 8 8 9 10 11 12 12 13 14 14 12 11 9 7 6 6 7 7 6 5 3 4 7 6 4 3 3 5 9 13 16 17 16 14 12 12 11 8 6 5 4 4 3 3 4 5 6 7 6 6 5 4 4 4 2 1 2 4 6 9 11 13 14 15 18 20 22 22 22 21
6 6 5 4 5 5 5 5 4 4 5 7 7 8 9 11 10 9 8 8 9 9 10 10 10 10 10 9 9 9 8 6 5 5 5 4 3 2 3 5 6 5 4 4 7 10 13 15 16 15 13 12 11 9 6 4 4 4 3 3 3 5 6 7 7 7 6 5 5 5 5 4 3 3 4 6 9 11 13 14 14 15 16 19 22 23 23
7 6 5 5 5 6 5 4 3 4 5 5 5 7 10 12 12 9 8 8 8 8 9 9 7 5 5 6 6 6 7 6 6 6 6 5 4 3 3 3 4 4 4 5 8 10 12 13 15 15 13 11 9 8 6 4 4 3 3 4 5 7 8 8 8 7 7 7 7 7 7 7 7 5 5 7 9 11 13 15 16 15 14 15 18 21 23
7 7 6 6 7 7 6 5 5 4 4 4 6 8 11 13 13 10 8 8 9 9 9 9 7 5 4 5 5 4 4 4 3 5 7 7 5 3 2 1 2 3 4 6 8 10 12 13 14 14 13 11 9 8 7 5 4 4 5 5 6 8 9 9 9 9 9 9 9 9 10 10 10 9 8 9 10 11 12 14 16 16 16 15 15 17 20
6 6 6 6 6 7 7 7 5 4 5 7 9 10 11 12 12 11 10 10 11 11 10 9 8 7 6 6 6 6 5 3 3 4 6 7 7 5 4 3 3 4 5 6 8 10 11 12 12 13 13 12 11 9 8 7 7 7 7 7 7 8 9 10 11 11 10 10 10 10 11 11 12 11 11 11 11 11 12 14 15 16 16 16 15 15 16
6 5 4 5 6 6 6 5 5 7 9 10 10 10 10 10 10 11 12 13 12 12 12 11 11 9 8 7 7 8 7 6 7 7 8 7 7 6 6 5 5 6 7 8 8 9 10 11 12 13 13 13 13 12 11 11 10 10 10 10 10 10 10 11 11 11 11 11 10 10 11 11 11 11 12 13 13 12 12 13 14 14 13 14 15 16 16
8 6 5 5 6 6 6 6 6 8 9 10 9 9 8 7 8 11 14 13 11 10 12 13 13 13 12 11 11 10 8 7 8 9 8 8 8 8 7 7 7 8 9 10 10 11 12 12 13 14 15 15 16 15 15 14 14 14 14 13 13 13 12 12 12 12 12 11 11 10 10 10 11 11 12 13 14 14 14 13 13 12 11 11 13 14 15
8 6 5 6 7 7 6 5 5 6 8 8 8 8 7 6 8 11 13 12 10 10 10 10 12 15 16 16 15 14 12 10 10 10 10 10 10 10 10 10 10 10 11 11 12 13 14 15 15 16 16 17 18 18 18 18 18 18 17 17 16 16 15 15 14 13 13 12 12 11 11 10 10 11 12 14 15 15 15 14 13 11 10 10 11 13 14
Wind_Direction
223 219 219 202 187 217 211 193 199 200 190 180 186 206 199 156 172 229 225 180 197 227 227 222 223 212 208 216 214 210 209 202 186 168 168 182 201 213 209 203 201 200 206 206 199 202 204 203 206 207 208 210 210 211 214 214 215 216 215 214 215 216 216 216 216 217 219 219 216 213 207 201 206 218 225 224 225 233 241 240 236 229 223 221 218 218 226
230 226 226 208 197 222 233 218 208 199 197 194 198 211 198 180 206 225 192 184 209 223 216 218 223 214 208 206 184 182 192 187 178 178 185 195 206 210 205 201 202 206 210 208 200 200 201 202 203 203 205 207 207 209 212 213 215 217 215 215 215 215 218 221 222 224 223 214 199 184 172 173 187 216 256 254 244 239 240 242 241 235 232 231 227 225 233
236 229 227 221 210 215 230 237 229 203 194 201 214 228 206 188 220 230 176 184 226 239 219 218 227 176 162 167 179 194 201 190 180 186 195 203 208 207 200 197 202 210 212 208 204 203 205 206 204 204 206 206 206 210 211 212 216 216 214 213 212 212 216 220 223 222 203 167 155 157 166 184 201 217 241 255 252 245 246 248 245 240 238 238 235 236 242
244 229 223 227 222 219 232 240 237 225 206 195 211 218 190 189 211 204 147 183 236 246 217 206 210 144 172 207 212 207 205 189 184 195 204 207 204 196 194 197 200 207 207 203 203 207 209 208 207 208 208 205 206 210 211 214 217 215 211 210 210 210 210 210 210 199 170 149 143 145 171 197 208 212 221 230 229 227 243 260 263 254 247 244 245 248 250
253 236 216 219 217 221 239 238 231 228 219 207 215 207 188 188 175 163 184 216 236 227 171 183 215 192 195 217 217 207 207 198 196 203 205 202 196 189 192 197 198 201 205 203 205 210 211 211 211 211 208 206 210 212 213 215 215 210 209 210 209 205 199 196 193 181 172 171 166 165 187 203 207 212 216 217 213 216 229 251 268 267 259 253 251 251 253
251 245 210 175 192 212 236 243 222 219 219 214 213 206 196 200 176 191 226 247 261 228 167 186 208 208 214 227 205 169 173 185 203 216 208 194 191 191 192 196 200 203 201 199 210 218 221 218 216 214 212 214 217 217 215 215 211 207 208 209 204 192 182 182 180 174 174 178 176 186 200 197 196 204 208 209 213 216 222 235 253 262 265 264 259 255 257
244 241 109 154 227 229 242 292 238 211 210 194 169 118 100 222 284 267 256 262 263 250 229 220 207 192 210 16 38 54 154 167 178 201 212 195 185 187 190 188 187 180 165 165 195 218 227 228 221 218 217 216 215 212 210 210 207 206 206 202 193 182 172 168 169 171 176 182 188 196 197 190 189 192 193 204 213 213 216 225 239 258 269 272 270 265 264
241 92 133 202 236 244 257 35 52 84 131 139 127 98 56 255 258 239 239 259 270 264 268 267 178 147 127 60 33 354 327 200 169 167 187 195 185 188 190 179 176 177 180 186 195 206 217 221 218 218 216 211 206 203 204 206 205 204 201 193 182 173 167 165 169 172 175 178 180 181 179 175 174 174 180 197 205 205 207 212 229 254 267 271 273 273 269
172 158 184 226 241 246 64 71 78 80 100 139 143 135 221 259 261 228 214 297 332 339 317 249 170 140 100 46 17 360 355 326 237 173 173 176 169 175 176 165 173 184 187 189 192 201 210 212 214 215 210 203 197 195 199 201 201 198 191 180 173 170 169 169 169 167 166 162 154 151 162 185 191 199 213 215 209 204 203 208 227 248 263 271 278 279 273
112 115 118 143 180 210 236 247 206 111 120 182 161 121 132 309 315 257 178 88 37 25 16 254 201 122 70 32 342 337 355 352 340 27 107 118 110 124 141 138 145 154 161 166 175 191 201 204 211 212 204 198 193 191 196 196 194 189 180 173 170 165 162 162 160 158 157 152 144 153 194 210 212 221 227 224 216 210 208 216 233 254 278 290 290 284 276
126 131 149 186 190 205 237 264 279 63 113 187 138 95 22 328 340 312 187 98 84 76 57 278 195 92 77 50 336 325 346 13 30 47 60 69 79 99 115 116 118 121 127 136 145 160 175 184 200 207 202 197 192 192 196 193 189 185 176 168 164 157 155 158 157 156 154 150 151 168 183 189 202 219 229 231 227 223 223 230 252 286 303 301 294 285 274
276 141 143 199 211 206 258 289 304 334 344 191 142 129 244 319 340 324 358 96 102 110 103 69 58 74 95 109 120 287 314 39 53 70 84 87 91 98 97 97 104 111 115 119 118 121 145 175 196 199 192 189 188 192 193 190 190 186 172 162 160 158 159 160 156 152 150 150 155 162 161 169 203 222 241 252 241 239 250 259 289 312 317 312 297 280 251
316 81 125 200 240 232 285 311 311 320 342 86 148 172 224 332 343 330 22 70 83 98 96 87 73 64 102 153 189 189 76 62 41 45 62 63 59 60 64 77 97 105 99 92 96 98 125 179 184 184 182 181 184 188 188 190 192 180 160 155 157 158 159 159 158 157 159 163 168 166 157 140 239 236 260 281 285 293 310 347 356 355 3 2 311 212 193
329 24 106 294 233 213 336 334 324 334 55 111 159 184 261 19 16 9 49 59 58 67 77 88 106 119 111 49 40 56 62 56 37 36 45 48 46 47 49 52 66 81 77 72 79 85 110 165 172 180 182 179 180 183 184 186 181 162 152 153 156 158 159 159 163 167 167 168 173 176 185 301 351 306 264 264 277 303 34 43 358 345 19 70 190 196 204
331 26 37 18 211 296 335 337 333 23 89 146 163 126 83 133 111 83 74 70 65 66 69 74 88 88 69 51 47 52 56 55 49 47 54 60 54 50 52 48 48 69 82 83 83 83 100 149 166 181 181 172 169 170 169 171 165 157 155 156 156 159 163 166 171 174 170 168 177 190 207 226 75 91 171 182 181 175 169 252 279 277 266 262 241 223 223
9 51 30 328 277 303 320 338 76 80 89 143 150 130 132 178 135 92 74 66 68 82 85 75 67 68 63 55 52 51 48 48 49 50 57 69 73 71 74 77 82 95 101 96 90 92 116 156 171 182 178 164 155 156 159 164 164 159 158 159 160 164 168 170 175 177 175 177 187 196 207 217 201 156 161 173 188 214 244 263 273 282 275 245 223 217 227
224 137 162 270 302 314 324 14 89 94 90 109 127 124 118 108 99 96 80 64 55 71 81 74 62 58 57 58 59 59 55 48 49 59 63 70 84 86 84 85 85 87 90 91 95 111 145 166 173 179 176 165 156 156 160 164 165 164 164 165 167 168 168 168 172 178 183 190 197 202 214 229 232 222 221 231 239 244 256 268 273 268 247 222 212 220 234
180 73 38 346 346 343 345 13 57 87 88 80 93 99 95 91 101 99 93 84 64 56 69 72 59 40 33 42 46 53 64 54 42 57 64 65 83 92 94 94 93 95 105 115 127 142 151 162 169 173 176 174 167 162 164 167 169 171 170 170 169 166 163 164 169 177 186 193 198 206 220 228 228 225 222 228 238 246 255 260 257 250 241 228 224 230 232
148 85 332 328 345 331 333 9 48 66 73 76 80 84 90 104 95 76 82 90 80 63 61 67 66 51 38 36 22 11 31 39 27 34 43 37 59 88 108 120 118 119 127 134 141 143 144 157 168 172 177 180 176 171 171 174 178 179 176 171 167 164 165 169 173 176 182 190 199 215 225 222 223 227 220 219 230 239 245 247 245 241 238 234 229 226 225
118 145 190 181 100 23 333 349 48 50 54 59 56 66 89 101 86 72 68 76 78 71 63 66 69 56 39 34 23 1 1 11 11 19 23 5 1 37 92 117 119 119 125 131 136 141 150 163 172 176 179 180 179 176 175 177 179 177 173 169 168 169 173 178 182 183 186 191 199 207 212 213 212 212 210 213 219 223 230 236 236 232 228 222 218 218 222
98 126 174 167 118 73 348 339 41 42 53 68 62 60 63 65 69 70 62 57 62 65 63 65 68 59 41 31 29 12 357 0 359 359 14 10 353 355 37 81 96 111 128 142 148 152 160 167 172 177 180 182 182 178 175 174 172 165 161 162 166 170 173 176 180 181 180 183 186 187 189 193 190 188 195 205 207 210 219 228 228 226 222 218 221 228 227
135 155 192 185 134 117 185 141 62 48 64 81 73 60 54 53 61 71 71 66 63 61 55 55 64 63 48 36 40 31 13 6 354 343 351 6 351 343 11 38 30 111 157 165 162 158 159 163 168 174 177 178 179 178 173 170 165 160 160 164 167 170 171 170 170 170 170 175 180 182 185 189 186 183 190 203 205 209 219 225 226 228 229 231 240 243 231
164 162 206 221 117 118 150 124 87 81 81 80 75 66 61 60 62 72 76 73 67 64 59 55 62 64 51 42 49 45 27 13 0 345 337 336 332 324 319 274 247 214 181 171 162 154 153 157 161 167 168 169 173 174 172 169 166 164 164 164 161 160 161 160 160 161 163 168 174 182 196 201 193 187 190 200 211 222 230 231 233 237 240 242 245 240 225
350 92 124 304 90 100 108 89 89 97 97 92 91 88 81 76 71 74 79 77 73 73 66 55 57 63 58 48 48 47 34 16 10 3 346 331 325 310 269 222 197 179 169 163 157 152 153 154 156 157 158 161 166 168 169 170 169 164 158 153 148 148 152 154 156 156 157 162 175 199 216 212 202 197 196 192 194 218 232 230 230 232 231 230 228 222 217
23 55 51 65 84 93 104 83 63 44 53 82 92 96 95 88 76 70 72 73 71 72 69 60 53 54 57 55 51 50 43 21 16 18 14 5 3 357 201 203 192 177 169 165 161 157 156 154 151 149 150 153 157 160 161 162 158 152 147 145 145 150 156 159 161 163 167 182 207 224 221 208 199 200 199 186 166 150 154 176 192 202 207 211 211 212 215
29 31 52 72 70 59 70 78 49 18 17 45 57 56 59 66 67 62 58 58 56 58 65 67 62 63 66 67 62 56 47 29 21 22 22 18 14 15 12 231 212 191 179 172 167 165 163 158 152 149 148 150 151 151 150 149 147 145 146 148 151 158 168 175 181 188 198 205 209 208 202 195 191 192 193 188 174 160 153 158 174 192 203 208 209 211 214
20 356 24 68 66 49 53 75 68 36 28 43 55 54 49 60 67 63 56 52 48 47 50 46 47 62 61 53 53 51 39 27 19 16 17 14 4 354 332 264 225 198 185 179 175 173 170 164 159 156 153 152 152 150 147 149 154 161 168 173 172 173 181 191 197 203 206 201 192 186 185 186 186 184 185 187 183 175 170 175 184 191 197 201 205 208 209
30 17 26 68 83 72 60 61 69 69 57 50 62 71 60 59 59 52 46 40 30 32 39 31 28 38 37 29 34 36 25 23 19 8 2 359 356 353 336 262 223 200 188 184 182 181 178 173 171 168 160 157 159 160 163 177 197 209 215 221 216 195 189 194 192 191 193 190 185 182 180 180 180 179 181 185 187 189 194 198 195 190 189 192 196 199 201
32 35 42 54 73 86 73 38 38 56 55 43 47 57 58 59 55 45 36 26 16 20 23 15 16 24 22 18 24 26 16 13 6 351 345 343 349 355 348 262 215 201 192 187 186 187 187 184 180 175 170 170 174 180 191 206 218 228 232 228 215 199 199 200 188 183 187 187 185 183 178 172 173 176 179 184 191 199 206 208 200 191 189 190 191 192 193
1 25 60 52 40 103 95 65 53 54 46 42 51 53 55 63 66 52 28 17 20 24 13 358 7 16 13 8 7 1 346 335 329 333 337 336 342 355 356 259 197 187 188 193 195 196 194 193 189 183 181 184 188 196 207 214 218 226 225 213 200 200 206 202 190 177 178 178 173 173 175 174 174 177 182 188 199 208 211 208 199 193 192 194 195 195 194
250 235 109 111 119 89 78 75 78 69 48 51 57 50 46 57 65 50 19 14 19 10 354 353 5 7 359 350 344 338 331 322 318 325 335 334 334 344 348 255 199 194 197 200 203 204 202 201 199 193 190 192 193 195 202 207 206 209 210 204 203 212 212 203 202 171 168 175 175 174 176 177 178 182 189 196 202 207 208 206 204 200 196 197 201 203 200
214 95 65 57 47 50 48 43 47 45 36 39 48 44 40 55 63 47 18 12 356 334 346 1 2 349 339 334 332 330 328 326 324 327 335 333 328 330 331 292 231 224 218 209 207 208 211 213 211 206 205 205 199 196 206 213 202 194 196 205 211 212 208 209 218 204 185 183 182 180 180 181 186 196 203 201 193 190 192 202 213 212 206 205 208 211 207
171 72 47 36 37 48 43 29 29 36 32 33 43 38 29 44 53 36 6 355 350 353 0 353 340 335 333 332 331 331 332 333 331 329 330 327 322 321 322 311 270 245 235 225 218 216 218 222 225 225 224 215 201 205 228 234 210 193 198 210 212 208 208 209 203 194 187 183 182 185 188 192 201 207 200 189 189 201 207 208 210 211 212 215 219 219 213
102 100 101 109 90 83 77 58 44 47 42 38 40 32 22 23 16 0 0 6 2 351 340 329 327 332 335 333 332 335 337 337 332 322 318 316 315 316 317 313 285 247 235 231 226 221 222 226 229 226 211 193 189 199 244 243 216 194 194 204 209 208 206 203 194 184 175 171 175 183 188 194 202 205 198 193 200 211 214 211 211 214 218 221 225 224 216
109 121 135 140 119 119 126 113 99 104 89 58 30 16 20 23 13 3 2 0 345 329 324 326 330 334 336 336 335 336 333 323 311 308 308 310 313 314 310 293 223 190 181 182 191 197 201 200 186 151 122 115 105 70 37 10 331 230 209 232 246 229 199 189 188 175 158 158 166 175 180 185 192 194 194 195 199 205 211 214 216 220 222 223 227 227 217
87 90 88 78 69 79 93 88 85 120 104 74 41 21 20 21 19 8 351 340 338 336 334 336 336 335 334 333 328 320 316 313 313 312 311 314 318 317 292 166 154 145 133 121 119 122 123 123 120 111 104 100 88 53 22 4 347 304 265 258 246 214 185 171 160 133 134 152 163 168 167 166 168 173 179 187 197 207 217 220 216 216 220 223 228 229 219
44 53 53 41 36 37 41 40 32 37 55 57 45 35 24 9 4 2 354 350 351 348 343 340 337 329 323 322 321 323 328 331 329 324 320 324 341 99 127 127 130 137 132 115 108 110 112 110 99 86 82 79 64 48 41 43 43 237 228 223 210 184 148 116 106 109 132 153 161 161 159 160 167 180 196 212 216 217 224 227 226 228 231 231 234 233 224
23 30 31 26 25 24 25 31 37 44 51 49 37 31 24 10 4 3 0 358 357 353 348 346 342 335 334 337 345 357 3 2 359 354 355 21 89 108 109 109 109 101 93 111 117 111 102 90 77 76 85 92 96 104 114 112 115 171 190 186 164 122 105 112 124 140 155 161 163 163 162 166 180 202 223 232 228 225 231 238 242 246 247 245 243 237 229
18 20 19 19 22 21 21 27 34 40 45 43 30 21 15 10 7 2 356 354 356 356 353 349 347 350 357 2 8 13 12 12 18 27 40 71 92 90 80 85 95 94 92 110 119 107 92 85 83 91 111 128 136 137 137 144 160 171 169 154 130 121 120 119 128 146 155 159 164 168 171 178 196 223 239 244 242 235 231 235 245 253 255 253 248 240 232
18 12 11 15 19 18 16 17 19 22 27 31 27 15 6 2 0 357 351 349 352 355 355 352 350 353 358 1 7 13 17 25 37 50 60 75 87 86 80 86 98 103 108 120 123 119 113 107 104 121 146 149 145 144 149 156 162 163 157 147 142 141 133 127 129 136 145 157 168 177 188 202 218 231 242 251 251 239 234 243 253 255 255 256 252 242 235
12 10 15 21 19 15 13 10 5 7 13 19 17 10 5 358 354 351 347 344 346 351 356 356 352 346 345 353 10 29 34 35 44 57 69 78 85 85 78 87 103 115 132 142 137 130 123 116 121 136 148 148 144 146 153 157 157 154 150 148 148 148 151 153 152 149 161 176 188 201 216 227 235 242 250 255 256 254 255 259 261 258 256 255 250 243 238
5 7 17 21 14 8 11 11 6 3 6 9 11 11 8 1 352 344 341 341 343 348 353 357 356 352 347 352 15 37 39 35 38 50 63 70 79 87 94 108 118 128 142 150 146 133 122 126 135 143 146 146 145 148 150 148 145 145 145 144 145 151 161 170 174 180 188 195 207 221 232 241 251 259 263 265 265 263 261 259 258 256 254 252 248 242 237
356 0 11 12 6 4 6 6 7 4 360 3 10 16 13 4 354 343 338 340 343 346 352 357 1 2 3 5 16 31 32 30 33 43 53 55 57 79 113 127 130 134 145 155 146 134 132 138 144 149 148 147 147 148 145 144 145 145 144 149 154 155 161 169 173 175 179 184 191 201 213 234 258 270 275 275 273 269 263 257 253 251 250 249 247 242 236
354 0 3 355 359 9 11 7 7 6 356 358 10 21 20 10 0 348 340 341 347 352 356 359 1 4 9 13 18 22 25 24 24 32 43 50 55 79 124 144 149 154 165 162 144 141 143 146 150 152 153 153 154 153 151 149 147 142 141 157 168 170 173 175 172 169 170 171 169 168 166 165 259 300 301 297 291 285 275 265 258 253 250 247 245 243 238
353 358 354 346 355 13 16 9 5 356 342 348 6 22 20 11 6 359 352 351 353 355 357 357 358 2 8 13 14 17 23 25 19 22 31 40 44 69 143 168 177 178 169 159 155 154 154 155 157 160 163 164 164 162 157 150 145 137 134 145 167 181 183 180 177 176 176 176 178 180 180 178 196 310 314 311 308 304 298 288 276 265 255 249 245 243 240
346 348 347 341 344 355 5 11 12 359 352 3 13 13 6 5 7 7 5 2 358 356 356 354 352 357 6 11 10 11 16 22 24 24 22 14 14 49 118 162 179 177 165 166 169 166 163 163 165 169 173 175 174 172 168 161 157 154 148 152 173 186 187 186 186 188 189 196 207 214 214 217 230 265 298 307 308 308 307 306 300 288 271 258 251 247 245
338 335 334 335 336 340 352 17 27 15 9 8 356 342 345 353 359 3 4 3 1 360 0 360 356 353 359 3 5 6 8 11 17 23 21 16 19 51 93 136 170 178 177 183 184 180 178 178 180 184 189 192 191 190 193 193 186 184 184 188 197 202 203 203 205 209 216 226 236 240 240 239 242 256 284 301 305 307 308 307 306 302 292 275 259 250 247
324 316 315 322 324 326 336 355 11 14 4 341 319 319 332 343 348 351 357 0 358 357 0 4 4 358 348 350 356 0 1 1 6 10 11 9 5 7 25 113 186 190 191 192 193 193 192 193 194 197 203 208 211 213 217 222 221 218 215 215 218 221 223 226 229 233 238 244 248 250 250 249 252 262 277 289 297 305 309 308 305 302 298 289 274 259 251
322 313 314 318 316 318 329 343 348 338 326 320 318 322 332 338 341 343 347 348 346 346 350 356 358 356 351 347 345 342 337 322 309 322 338 347 347 342 331 297 253 236 226 215 209 206 206 208 209 213 218 225 230 232 233 235 236 236 236 237 236 236 239 242 243 244 247 251 251 252 254 256 258 263 270 276 283 293 303 309 308 303 296 291 286 277 266
344 339 334 324 315 315 322 322 312 311 315 316 316 322 331 335 333 332 334 336 335 336 338 341 344 345 345 342 340 339 333 323 316 319 325 331 333 331 323 304 277 257 248 244 238 232 226 224 224 226 229 234 241 244 244 244 245 247 248 248 248 247 248 248 247 246 250 253 255 257 261 263 263 264 267 270 274 281 293 305 311 308 299 291 287 285 280
339 338 339 330 317 312 311 302 294 301 312 315 316 321 327 326 320 322 327 329 328 327 331 336 338 338 336 334 334 333 328 319 315 315 316 317 319 320 318 310 296 278 265 261 259 255 249 244 243 241 240 241 246 251 252 252 253 254 255 256 257 258 259 259 259 260 261 260 259 260 262 262 261 262 264 267 270 275 282 292 303 309 305 296 289 285 283
337 342 355 348 333 326 326 325 321 324 329 329 328 331 333 327 321 325 332 334 331 326 323 321 322 326 329 329 327 324 320 312 306 303 302 302 303 304 304 302 297 290 281 276 273 270 267 262 260 257 254 252 254 257 259 260 261 262 262 263 265 266 267 268 270 272 271 266 259 256 257 258 259 261 263 266 269 271 273 279 286 294 298 298 295 291 286